Weather History for KRBG - April, 2013

Change the Weather History Date:

Thursday, April 25, 2013

  Actual Average Record
Temperature  
Mean Temperature 62 °F 54 °F  
Max Temperature 81 °F 65 °F 84 °F (2001)
Min Temperature 43 °F 43 °F 29 °F (1954)
Degree Days  
Heating Degree Days 3 11  
Month to date heating degree days 274 333  
Since 1 July heating degree days 3418 3712  
Cooling Degree Days 0 0  
Month to date cooling degree days 0 0  
Year to date cooling degree days 0 0  
Growing Degree Days 12 (Base 50)    
Moisture  
Dew Point 40 °F    
Average Humidity 55    
Maximum Humidity 89    
Minimum Humidity 20    
Precipitation  
Precipitation 0.00 in 0.08 in 1.40 in (1981)
Month to date precipitation 1.33 2.41  
Year to date precipitation 6.16 14.95  
Sea Level Pressure  
Sea Level Pressure 30.06 in    
Wind  
Wind Speed 3 mph (North)    
Max Wind Speed 17 mph    
Max Gust Speed 22 mph    
Visibility 10 miles    
Events      
T = Trace of Precipitation, MM = Missing Value Source: NWS Daily Summary

Daily Weather History Graph

Daily Weather History Graph

Search for Another Location

Airport or City:

Trip Planner

Search our weather history database for the weather conditions in past years. The results will help you decide how hot, cold, wet, or windy it might be!

Date:

Astronomy

Apr. 25, 2013 Rise Set
Actual Time 6:14 AM PDT 8:08 PM PDT
Civil Twilight 5:44 AM PDT 8:39 PM PDT
Nautical Twilight 5:07 AM PDT 9:16 PM PDT
Astronomical Twilight 4:26 AM PDT 9:57 PM PDT
Moon 8:29 PM PDT (4/25) 6:01 AM PDT (4/25)
Length of Visible Light 14h 54m
Length of Day
13h 53m
Full, 100% of the Moon is Illuminated
Apr 25
Full
Apr 25
Full
May 2
Last Quarter
May 9
New
May 17
First Quarter

Hourly Weather History & Observations

Time (PDT) Temp. Dew Point Humidity Pressure Visibility Wind Dir Wind Speed Gust Speed Precip Events Conditions
12:53 AM 52.0 °F 39.9 °F 63% 30.00 in 10.0 mi Calm Calm - N/A   Clear
1:53 AM 51.1 °F 39.0 °F 63% 30.00 in 10.0 mi Calm Calm - N/A   Clear
2:53 AM 48.9 °F 39.0 °F 69% 30.01 in 10.0 mi Calm Calm - N/A   Clear
3:53 AM 46.0 °F 39.9 °F 79% 30.02 in 10.0 mi Calm Calm - N/A   Clear
4:53 AM 45.0 °F 39.9 °F 82% 30.04 in 10.0 mi Calm Calm - N/A   Clear
5:53 AM 44.1 °F 39.0 °F 82% 30.04 in 10.0 mi Calm Calm - N/A   Clear
6:53 AM 43.0 °F 39.0 °F 86% 30.06 in 10.0 mi Calm Calm - N/A   Clear
7:53 AM 46.9 °F 41.0 °F 80% 30.07 in 10.0 mi Calm Calm - N/A   Clear
8:53 AM 52.0 °F 42.1 °F 69% 30.08 in 10.0 mi Calm Calm - N/A   Clear
9:53 AM 57.9 °F 41.0 °F 53% 30.08 in 10.0 mi Calm Calm - N/A   Clear
10:53 AM 63.0 °F 39.9 °F 43% 30.08 in 10.0 mi Calm Calm - N/A   Clear
11:53 AM 68.0 °F 41.0 °F 37% 30.08 in 10.0 mi Calm Calm - N/A   Clear
12:53 PM 73.0 °F 41.0 °F 31% 30.07 in 10.0 mi North 6.9 mph - N/A   Clear
1:53 PM 75.9 °F 39.0 °F 26% 30.06 in 10.0 mi NNE 6.9 mph - N/A   Clear
2:53 PM 79.0 °F 37.0 °F 22% 30.06 in 10.0 mi North 9.2 mph - N/A   Clear
3:53 PM 79.0 °F 36.0 °F 21% 30.05 in 10.0 mi North 9.2 mph - N/A   Clear
4:53 PM 80.1 °F 35.1 °F 20% 30.05 in 10.0 mi NNE 13.8 mph 19.6 mph N/A   Clear
5:53 PM 79.0 °F 35.1 °F 20% 30.06 in 10.0 mi North 13.8 mph 21.9 mph N/A   Clear
6:53 PM 78.1 °F 37.0 °F 23% 30.06 in 10.0 mi North 9.2 mph - N/A   Clear
7:53 PM 75.0 °F 39.0 °F 27% 30.07 in 10.0 mi North 4.6 mph - N/A   Clear
8:53 PM 66.9 °F 43.0 °F 42% 30.09 in 10.0 mi Calm Calm - N/A   Clear
9:53 PM 64.0 °F 44.1 °F 48% 30.12 in 10.0 mi Calm Calm - N/A   Clear
10:53 PM 61.0 °F 44.1 °F 54% 30.12 in 10.0 mi North 3.5 mph - N/A   Clear